This demonstration page uses our WeatherBlox Daily Observations layout. Learn more.

Left ArrowRight Arrow

34.16533, -84.80231

Hourly Observations for March 5, 2017

Temp ( °F °C ) Dew Point ( °F °C ) Humidity (%) Winds ( mph kmh ) Pressure ( in mb ) Visibility ( mi km ) Precip ( " mm )
12:53 am 00:53 Clear 35 1.7 28 -2.2 76 76 Calm 30.47 1032 10 16 0.00 0.00
1:53 am 01:53 Clear 34 1.1 28 -2.2 79 79 Calm 30.48 1032 10 16 0.00 0.00
2:53 am 02:53 Clear 34 1.1 29 -1.7 82 82 Calm 30.47 1032 10 16 0.00 0.00
3:53 am 03:53 Clear 33 0.6 28 -2.2 82 82 Calm 30.46 1032 10 16 0.00 0.00
4:53 am 04:53 Clear 32 0 28 -2.2 85 85 Calm 30.45 1031 10 16 0.00 0.00
5:53 am 05:53 Clear 32 0 29 -1.7 88 88 Calm 30.47 1032 10 16 0.00 0.00
6:53 am 06:53 Clear 33 0.6 29 -1.7 85 85 Calm 30.49 1032 10 16 0.00 0.00
7:53 am 07:53 Sunny 40 4.4 31 -0.6 70 70 E 6 9 30.50 1033 10 16 0.00 0.00
8:53 am 08:53 Sunny 46 7.8 33 0.6 61 61 NE 3 6 30.51 1033 10 16 0.00 0.00
9:53 am 09:53 Sunny 54 12.2 29 -1.7 38 38 SE 5 7 30.50 1033 10 16 0.00 0.00
10:53 am 10:53 Sunny 60 15.6 31 -0.6 33 33 VRB 7 11 30.49 1033 10 16 0.00 0.00
11:53 am 11:53 Sunny 64 17.8 30 -1.1 28 28 SE 9 15 30.48 1032 10 16 0.00 0.00
12:53 pm 12:53 Sunny 66 18.9 30 -1.1 26 26 VRB 6 9 30.45 1031 10 16 0.00 0.00
1:53 pm 13:53 Sunny 67 19.4 34 1.1 30 30 SSE 7 11 30.42 1030 10 16 0.00 0.00
2:53 pm 14:53 Sunny 67 19.4 33 0.6 28 28 VRB 5 7 30.39 1029 10 16 0.00 0.00
3:53 pm 15:53 Mostly Sunny 66 18.9 33 0.6 29 29 S 7 11 30.38 1029 10 16 0.00 0.00
4:53 pm 16:53 Mostly Sunny 65 18.3 33 0.6 31 31 S 9 15 30.39 1029 10 16 0.00 0.00
5:53 pm 17:53 Mostly Cloudy 63 17.2 36 2.2 37 37 SE 3 6 30.39 1029 10 16 0.00 0.00
6:53 pm 18:53 Cloudy 58 14.4 40 4.4 51 51 Calm 30.39 1029 10 16 0.00 0.00
7:53 pm 19:53 Cloudy 59 15 37 2.8 44 44 Calm 30.38 1029 10 16 0.00 0.00
8:53 pm 20:53 Mostly Clear 58 14.4 36 2.2 44 44 SE 3 6 30.38 1029 10 16 0.00 0.00
9:53 pm 21:53 Clear 58 14.4 35 1.7 42 42 SE 3 6 30.37 1029 10 16 0.00 0.00
10:53 pm 22:53 Partly Cloudy 56 13.3 37 2.8 49 49 SE 6 9 30.37 1028 10 16 0.00 0.00
11:53 pm 23:53 Cloudy 55 12.8 38 3.3 53 53 Calm 30.37 1028 10 16 0.00 0.00

Powered by AerisWeather